Location: Pine Mountain Observatory
(43.7910°N, 120.9377°W)
Time: 06:12:51
(UTC-07:00)

Daily predictions for brighter satellites

Satellite Brightness Start Highest point End
(mag) Time Altitude Azimuth Time Altitude Azimuth Time Altitude Azimuth
Cosmos 1777 Rocket 4.1 21:18:50 10° SSW 21:24:07 87° WNW 21:29:24 10° NNE
Terra 4.0 21:24:46 10° E 21:26:36 12° ENE 21:28:25 10° NE
Cosmos 2360 Rocket 2.3 21:21:50 10° NNW 21:27:32 87° ENE 21:33:12 10° SSE
CZ-4 SHROUD 3.9 21:24:49 10° SE 21:27:47 40° ENE 21:30:45 10° N
Cosmos 1908 3.3 21:24:59 10° N 21:28:54 89° W 21:32:49 10° S
Nimbus 7 Rocket 4.5 21:23:50 10° NNE 21:29:40 62° ESE 21:35:27 10° S
SL-16 R/B 3.6 21:24:58 10° NW 21:30:05 36° WSW 21:35:10 10° S
MetOp-B 4.5 21:27:12 10° SE 21:32:22 52° ENE 21:37:34 10° N
USA 245 4.1 21:31:20 10° ESE 21:32:56 16° ENE 21:34:26 10° NNE
Cosmos 2058 3.7 21:29:32 10° SSE 21:33:12 33° E 21:36:54 10° NNE
NOSS 3-1 (C) 3.9 21:28:03 10° S 21:33:23 38° ESE 21:39:15 10° NE
Cosmos 1633 Rocket 4.5 21:30:16 10° SE 21:33:32 21° E 21:36:47 10° NE
DELTA 2 R/B (1) 4.3 21:28:27 10° W 21:33:36 40° SSW 21:38:44 10° SE
Cosmos 405 3.2 21:31:30 10° NNW 21:35:09 78° W 21:38:45 10° S
Cosmos 1151 Rocket 3.1 21:31:46 10° N 21:36:06 86° W 21:40:25 10° S
Cosmos 1674 2.8 21:34:08 10° S 21:37:57 86° W 21:41:52 10° N
Meteor 2-20 Rocket 4.5 21:38:07 10° S 21:44:17 87° E 21:50:28 10° N
SL-23 DEB 4.1 21:39:26 10° WNW 21:45:01 73° SW 21:48:13 12° SE
Tiangong 1 2.2 21:43:53 10° SSW 21:46:26 23° SSE 21:48:58 10° E
Cosmos 1805 Rocket 3.9 21:44:37 10° SSE 21:48:54 49° E 21:53:12 10° NNE
Cosmos 1300 3.1 21:45:53 10° N 21:49:36 46° ENE 21:52:56 12° SSE
YAOGAN 6 2.8 21:47:15 11° SSE 21:50:39 54° ENE 21:54:12 10° N
CZ-4B R/B 3.9 21:45:52 10° NNE 21:50:56 46° E 21:55:54 10° S
H-2A R/B 3.4 21:48:41 10° ESE 21:53:03 27° ENE 21:57:31 10° N
Cosmos 1680 Rocket 3.8 21:49:01 10° NNW 21:54:13 67° WSW 21:59:26 10° S
Cosmos 2266 Rocket 4.3 21:49:05 10° SSW 21:55:21 73° W 22:01:34 10° N
Cosmos 2227 Rocket 3.6 21:53:14 12° SE 21:56:31 19° E 22:00:26 10° NE
Meteor 1-11 4.5 21:51:32 10° S 21:57:08 54° E 22:02:43 10° NNE
Cosmos 2315 Rocket 4.0 21:53:54 10° N 22:00:09 87° E 22:06:21 10° S
Cosmos 1939 Rocket 4.3 21:59:14 10° SSW 22:02:51 35° W 22:06:27 10° NNW
SPOT 1/Viking Rocket 3.6 22:00:26 12° SSE 22:05:11 72° ENE 22:10:20 10° N
H-2A R/B 3.6 22:01:28 10° SSW 22:05:37 36° W 22:09:48 10° NNW
Cosmos 1707 Rocket 3.5 22:01:55 10° N 22:06:18 76° E 22:10:06 13° SSE
PSLV R/B 4.0 22:05:30 10° S 22:08:28 46° W 22:11:26 10° NNW
Cosmos 1898 Rocket 3.7 22:03:30 10° S 22:08:29 50° ESE 22:13:31 10° NNE
Cosmos 2333 Rocket 3.1 22:03:28 10° NNW 22:08:51 39° ENE 22:13:18 14° ESE
SL-16 R/B 4.1 22:05:02 10° N 22:08:55 18° NE 22:12:47 10° E
Cosmos 1666 Rocket 3.6 22:07:07 10° S 22:11:27 64° E 22:15:51 10° NNE
Cosmos 1455 3.9 22:09:07 10° NNE 22:12:02 20° ENE 22:13:51 15° ESE
Cosmos 2150 Rocket 4.1 22:10:47 10° S 22:16:08 62° ESE 22:21:32 10° NNE
SPOT 5 3.6 22:12:26 10° S 22:16:50 47° W 22:21:32 10° NNW
Meteor 2-11 Rocket 4.5 22:13:11 10° N 22:19:22 88° E 22:24:53 13° S
COSMOS 2428 2.9 22:15:04 10° NNW 22:20:45 73° WSW 22:25:20 16° SSE
Nadezhda 1 Rocket 4.4 22:16:54 10° N 22:22:45 46° ENE 22:26:55 19° SE
Cosmos 2297 Rocket 3.4 22:21:13 18° SE 22:23:27 22° E 22:27:44 10° NE
Cosmos 1470 Rocket 4.3 22:22:50 21° SE 22:25:06 35° E 22:29:02 10° NNE
Cosmos 1933 Rocket 4.3 22:23:56 21° SE 22:26:18 35° E 22:30:23 10° NNE
ARGOS 3.2 22:22:33 16° SSE 22:27:01 88° WSW 22:32:27 10° NNW
Cosmos 2219 Rocket 2.3 22:22:54 10° NNW 22:28:30 68° ENE 22:32:19 21° SE
Cosmos 1726 2.3 22:26:22 10° NNW 22:30:09 71° W 22:32:47 19° S
SL-08 R/B 4.5 22:29:27 13° S 22:35:03 72° E 22:41:20 10° NNE
Cosmos 1745 Rocket 4.0 22:31:50 16° S 22:36:54 64° E 22:43:01 10° NNE
NOSS 3-1 (A) 3.4 22:31:19 10° SSW 22:37:13 81° SE 22:43:49 10° NE
CZ-4C R/B 2.9 22:35:43 28° SSE 22:37:25 74° ENE 22:40:54 10° N
ERBS 3.2 22:38:38 29° ESE 22:38:38 29° ESE 22:41:32 10° ENE
Cosmos 292 Rocket 3.8 22:40:15 10° NNW 22:45:01 76° WSW 22:47:50 24° S
NOSS 0 Rocket 3.9 22:39:13 10° NNW 22:45:24 83° ENE 22:49:19 24° SSE
USA 32 4.1 22:41:13 10° N 22:46:30 81° W 22:50:15 20° S
Cosmos 1980 3.8 22:42:02 10° NNW 22:47:42 70° ENE 22:51:01 25° SE
Landsat 7 3.8 22:44:49 24° SSE 22:47:45 89° WSW 22:52:33 10° NNW
Cosmos 1271 Rocket 2.9 22:44:38 10° NNW 22:48:27 67° W 22:50:32 26° S
Cosmos 1346 3.3 22:49:27 44° SE 22:49:55 50° E 22:52:52 10° NNE
Meteor 1-4 Rocket 3.2 22:48:36 10° NNW 22:52:16 52° W 22:54:14 24° SSW
Cosmos 1703 3.4 22:52:05 21° SSW 22:54:37 74° W 22:58:32 10° N
Cosmos 2219 4.5 22:49:14 10° SW 22:54:40 42° WNW 23:00:08 10° NNE
Cosmos 2242 Rocket 4.3 22:54:31 10° NNW 22:58:52 51° W 23:01:45 20° SSW
Iridium 2 3.8 22:57:23 25° SSW 22:59:28 71° W 23:03:20 10° N
ATLAS 2AS CENTAUR R/B 3.1 22:52:53 12° S 22:59:39 53° ESE 23:07:23 10° NE
Cosmos 2237 Rocket 2.2 22:54:31 10° NNW 23:00:17 81° ENE 23:03:21 29° SSE
Cosmos 1386 Rocket 4.4 22:57:20 23° S 23:01:15 72° E 23:07:16 10° NNE
Meteor 2-10 4.4 22:55:45 10° NNW 23:01:28 72° W 23:05:08 23° S
Terra 1.8 23:01:11 29° SSE 23:03:37 88° WSW 23:08:25 10° NNW
Lacrosse 4 Rocket 2.8 22:59:53 10° NNW 23:03:53 32° NE 23:06:05 21° E
Cosmos 1862 Rocket 3.4 23:00:43 10° N 23:05:06 86° E 23:06:52 35° S
Cosmos 2082 3.7 23:01:36 19° S 23:05:47 68° ESE 23:11:29 10° NNE
Cosmos 1937 Rocket 3.7 23:01:54 10° SSW 23:07:08 69° WNW 23:12:19 10° NNE
Sich 1 4.4 23:03:06 10° SW 23:07:12 37° WNW 23:11:18 10° N
CARTOSAT-1 3.6 23:05:23 32° S 23:07:21 75° WSW 23:11:41 10° NNW
Spot 4 3.8 23:05:42 32° SSE 23:07:59 80° ENE 23:12:51 10° NNW
Cosmos 2181 Rocket 4.5 23:04:35 10° N 23:10:47 50° ENE 23:13:59 28° SE
BREEZE-M DEB (TANK) 4.2 23:11:13 28° ESE 23:11:13 28° ESE 23:16:39 10° ENE
Cosmos 1633 Rocket 4.5 23:07:04 10° SW 23:11:05 35° WNW 23:15:08 10° N
Cosmos 1626 2.0 23:10:26 39° S 23:11:44 89° W 23:15:32 10° N
ATLAS 3B R/B 3.0 23:07:18 10° NNW 23:14:19 61° NE 23:18:28 24° ESE
Cosmos 990 Rocket 4.0 23:13:44 17° SSW 23:17:46 78° WNW 23:22:56 10° NNE
OAO 2 Rocket 4.2 23:17:15 10° WSW 23:21:19 30° S 23:21:19 30° S
Tiangong 1 2.3 23:19:39 10° WSW 23:21:28 31° WSW 23:21:28 31° WSW
BREEZE-M DEB (TANK) 4.5 23:28:23 10° ENE 23:28:23 10° ENE 23:28:28 10° ENE
FALCON 9 R/B 3.7 23:04:42 10° W 23:26:14 50° SSW 23:30:02 28° SE
Cosmos 1933 3.4 23:25:51 10° N 23:29:55 67° E 23:30:43 51° SE
H-2A R/B 2.9 23:29:19 24° SSW 23:32:11 46° W 23:37:25 10° NNW
Cosmos 1269 Rocket 4.0 23:27:34 10° NNW 23:32:54 79° ENE 23:34:54 39° SSE
COSMOS 2455 2.9 23:27:40 10° NNW 23:33:45 77° ENE 23:36:29 34° SE
Cosmos 1869 Rocket 3.9 23:33:33 43° SE 23:34:23 49° E 23:38:43 10° NNE
H-2A R/B 4.3 23:33:15 10° NE 23:36:09 19° E 23:36:09 19° E
Cosmos 389 Rocket 3.4 23:34:29 10° N 23:37:50 36° ENE 23:37:58 36° E
Cosmos 2227 Rocket 2.6 23:34:58 13° SW 23:40:01 64° WNW 23:45:40 10° NNE
CZ-4B R/B 3.5 23:44:29 18° ENE 23:44:46 18° ENE 23:47:12 10° NNE
GEOS 3 Rocket 4.4 23:44:09 23° ESE 23:47:06 46° NE 23:52:03 10° NNW
Cosmos 1455 3.8 23:44:30 10° NNW 23:47:46 27° W 23:48:54 23° WSW
ALOS 2 3.8 23:46:38 27° E 23:47:46 31° ENE 23:51:38 10° N
SeaSat 1 2.6 23:49:07 39° SE 23:50:51 64° ENE 23:55:45 10° NNW
Cosmos 2333 Rocket 3.3 23:47:55 10° NW 23:53:02 34° WSW 23:55:18 25° SW
SL-16 R/B 2.1 23:48:04 10° NNW 23:53:48 85° WSW 23:55:45 43° SSE
